Home   Weather   Copenhagen   Past weeks

Flag for Denmark Past Weather in Copenhagen, Denmark — Yesterday and Last 2 Weeks

Now
48 °F

Clear.


Feels Like: 45 °F
Forecast: 44 / 56 °F
Wind: 7 mph from West

Location: Koebenhavn-Kastrup Airport

Current Time: Oct 20, 2018 at 6:23:04 am

Latest Report: Oct 20, 2018 at 5:50 am


Visibility: 10 mi

Pressure: 30.24 "Hg

Humidity: 76%

Dew Point: 41 °F

Location of CopenhagenLocation

Past Weather in Copenhagen — Graph

°F

Copenhagen Temperature Yesterday

Maximum temperature yesterday: 55 °F (at 1:50 pm)
Minimum temperature yesterday: 37 °F (at 2:50 am)
Average temperature yesterday: 47 °F

High & Low Weather Summary for the Past Weeks

 TemperatureHumidityPressure
High64 °F (Oct 13, 3:50 pm)100% (Oct 6, 4:50 am)30.27 "Hg (Oct 6, 4:50 am)
Low37 °F (Oct 19, 2:50 am)55% (Oct 7, 3:20 pm)29.74 "Hg (Oct 7, 2:20 am)
Average55 °F83%30.08 "Hg
* Reported Oct 5 5:20 am — Oct 20 5:20 am, Copenhagen. Weather by CustomWeather, © 2018

Note: Actual official high and low records may vary slightly from our data, if they occured in-between our weather recording intervals... More about our weather records

Advertising

Copenhagen Weather History for the Previous 24 Hours

Scroll right to see more
 ConditionsComfort  
Time TempWeatherWind HumidityBarometerVisibility
5:20 am
Sat, Oct 20
46 °FClear.6 mph76%30.24 "Hg10 mi
4:50 am48 °FClear.6 mph71%30.24 "Hg10 mi
4:20 am50 °FOvercast.7 mph67%30.24 "HgN/A
3:50 am50 °FOvercast.8 mph71%30.24 "HgN/A
3:20 am50 °FOvercast.7 mph76%30.24 "HgN/A
2:50 am50 °FOvercast.8 mph76%30.24 "HgN/A
2:20 am50 °FOvercast.8 mph76%30.27 "HgN/A
1:50 am50 °FOvercast.6 mph76%30.24 "HgN/A
1:20 am50 °FOvercast.7 mph76%30.24 "HgN/A
12:50 am50 °FOvercast.7 mph76%30.27 "HgN/A
12:20 am50 °FOvercast.8 mph76%30.27 "HgN/A
11:50 pm
Fri, Oct 19
50 °FOvercast.7 mph76%30.27 "HgN/A
11:20 pm50 °FOvercast.6 mph76%30.24 "HgN/A
10:50 pm50 °FOvercast.6 mph76%30.27 "HgN/A
10:20 pm50 °FOvercast.7 mph76%30.27 "HgN/A
9:50 pm50 °FOvercast.6 mph76%30.27 "HgN/A
9:20 pm50 °FPassing clouds.7 mph76%30.27 "HgN/A
8:50 pm50 °FPassing clouds.6 mph82%30.27 "HgN/A
8:20 pm50 °FPassing clouds.7 mph82%30.27 "HgN/A
7:50 pm50 °FPassing clouds.3 mph76%30.24 "HgN/A
7:20 pm50 °FPassing clouds.3 mph76%30.24 "HgN/A
6:50 pm50 °FPassing clouds.5 mph71%30.24 "HgN/A
6:20 pm50 °FPassing clouds.6 mph71%30.24 "HgN/A
5:50 pm52 °FScattered clouds.5 mph67%30.24 "HgN/A
5:20 pm52 °FScattered clouds.10 mph67%30.24 "HgN/A
4:50 pm54 °FScattered clouds.7 mph63%30.24 "HgN/A
4:20 pm52 °FPartly sunny.9 mph67%30.24 "HgN/A
3:50 pm54 °FPartly sunny.12 mph63%30.24 "HgN/A
3:20 pm52 °FScattered clouds.8 mph67%30.27 "HgN/A
2:50 pm54 °FScattered clouds.9 mph63%30.27 "HgN/A
2:20 pm52 °FScattered clouds.8 mph67%30.27 "HgN/A
1:50 pm55 °FScattered clouds.5 mph67%30.27 "HgN/A
1:20 pm54 °FScattered clouds.9 mph72%30.27 "HgN/A
12:50 pm52 °FScattered clouds.6 mph72%30.27 "HgN/A
12:20 pm52 °FBroken clouds.5 mph72%30.27 "HgN/A
11:49 am52 °FScattered clouds.5 mph77%30.27 "HgN/A
11:20 am52 °FScattered clouds.6 mph82%30.27 "HgN/A
10:50 am50 °FScattered clouds.3 mph88%30.27 "HgN/A
10:20 am48 °FPartly sunny.3 mph94%30.27 "HgN/A
9:50 am46 °FPartly sunny.3 mph93%30.27 "HgN/A
8:50 am43 °FFog.5 mph100%30.27 "HgN/A
8:20 am43 °FFog.3 mph93%30.27 "HgN/A
7:50 am41 °FFog.6 mph93%30.27 "HgN/A
7:20 am41 °FFog.5 mph100%30.24 "HgN/A
6:50 am41 °FFog.5 mph100%30.27 "HgN/A
6:20 am43 °FFog.6 mph100%30.24 "HgN/A
Weather by CustomWeather, © 2018

See weather overview